| time (UTC) | temp F | wind direction | speed knots | gust knots | rain 1hr in | rain 24hr in | rain mn in | humidity % | barometer mb |
| 20260510075512 | 53 | 198 | 1.7 | 5.2 | 0.00 | 0.00 | 0.00 | 83 | 1014.2 |
| 20260510073512 | 52 | 151 | 2.6 | 5.2 | 0.00 | 0.00 | 0.00 | 84 | 1014.3 |
| 20260510072512 | 52 | 179 | 2.6 | 5.2 | 0.00 | 0.00 | 0.00 | 84 | 1014.4 |
| 20260510070513 | 51 | 159 | 2.6 | 6.1 | 0.00 | 0.00 | 0.00 | 84 | 1014.6 |
| 20260510065512 | 51 | 165 | 2.6 | 7.0 | 0.00 | 0.00 | 0.00 | 83 | 1014.7 |
| 20260510063513 | 51 | 152 | 3.5 | 6.1 | 0.00 | 0.00 | 0.00 | 84 | 1014.7 |
| 20260510062512 | 50 | 147 | 1.7 | 6.1 | 0.00 | 0.00 | 0.00 | 85 | 1014.8 |
| 20260510061512 | 50 | 169 | 1.7 | 6.1 | 0.00 | 0.00 | 0.00 | 85 | 1014.9 |
| 20260510060512 | 49 | 166 | 0.9 | 5.2 | 0.00 | 0.00 | 0.00 | 85 | 1015.0 |
| 20260510055512 | 49 | 186 | 2.6 | 6.1 | 0.00 | 0.00 | 0.00 | 86 | 1015.0 |
| 20260510054513 | 49 | 156 | 1.7 | 4.3 | 0.00 | 0.00 | 0.00 | 86 | 1015.0 |
| 20260510052512 | 48 | 155 | 2.6 | 5.2 | 0.00 | 0.00 | 0.00 | 87 | 1015.0 |
| 20260510051512 | 48 | 142 | 1.7 | 5.2 | 0.00 | 0.00 | 0.00 | 87 | 1015.3 |
| 20260510050512 | 47 | 137 | 0.9 | 4.3 | 0.00 | 0.00 | 0.00 | 87 | 1015.4 |
| 20260510045512 | 47 | 135 | 1.7 | 4.3 | 0.00 | 0.00 | 0.00 | 86 | 1015.4 |
| 20260510042512 | 46 | 130 | 1.7 | 5.2 | 0.00 | 0.00 | 0.00 | 87 | 1015.6 |
| 20260510035513 | 46 | 109 | 3.5 | 6.1 | 0.00 | 0.00 | 0.00 | 88 | 1016.0 |
| 20260510033512 | 45 | 111 | 3.5 | 5.2 | 0.00 | 0.00 | 0.00 | 88 | 1016.1 |
| 20260510031512 | 44 | 103 | 1.7 | 5.2 | 0.00 | 0.00 | 0.00 | 89 | 1016.2 |
| 20260510030512 | 44 | 106 | 1.7 | 5.2 | 0.00 | 0.00 | 0.00 | 90 | 1016.2 |
| 20260510024513 | 43 | 105 | 0.9 | 1.7 | 0.00 | 0.00 | 0.00 | 89 | 1016.5 |
| 20260510022513 | 44 | 106 | 4.3 | 5.2 | 0.00 | 0.00 | 0.00 | 88 | 1016.8 |
| 20260510021513 | 44 | 121 | 3.5 | 5.2 | 0.00 | 0.00 | 0.00 | 88 | 1016.9 |
| 20260510015512 | 44 | 78 | 0.0 | 5.2 | 0.00 | 0.00 | 0.00 | 85 | 1016.9 |
| 20260510014514 | 44 | 86 | 2.6 | 5.2 | 0.00 | 0.00 | 0.00 | 85 | 1016.9 |
| 20260510013513 | 44 | 98 | 2.6 | 4.3 | 0.00 | 0.00 | 0.00 | 84 | 1017.1 |
| 20260510011512 | 44 | 113 | 2.6 | 5.2 | 0.00 | 0.00 | 0.00 | 83 | 1017.3 |
| 20260510004513 | 44 | 105 | 1.7 | 4.3 | 0.00 | 0.00 | 0.00 | 82 | 1017.7 |
| 20260510001513 | 45 | 105 | 3.5 | 5.2 | 0.00 | 0.00 | 0.00 | 79 | 1018.4 |
| 20260509235512 | 45 | 109 | 2.6 | 5.2 | 0.00 | 0.00 | 0.00 | 80 | 1018.4 |
| 20260509233513 | 44 | 107 | 2.6 | 5.2 | 0.00 | 0.00 | 0.00 | 81 | 1018.7 |
| 20260509230513 | 45 | 105 | 4.3 | 5.2 | 0.00 | 0.00 | 0.00 | 80 | 1019.0 |
| 20260509225512 | 45 | 101 | 4.3 | 6.1 | 0.00 | 0.00 | 0.00 | 80 | 1019.1 |
| 20260509222513 | 48 | 138 | 1.7 | 5.2 | 0.00 | 0.00 | 0.00 | 79 | 1019.3 |
| 20260509221509 | 48 | 161 | 1.7 | 5.2 | 0.00 | 0.00 | 0.00 | 78 | 1019.3 |
| 20260509215513 | 48 | 177 | 0.9 | 4.3 | 0.00 | 0.00 | 0.00 | 77 | 1019.3 |
| 20260509213513 | 49 | 172 | 0.9 | 4.3 | 0.00 | 0.00 | 0.00 | 76 | 1019.4 |
| 20260509212512 | 49 | 186 | 0.9 | 4.3 | 0.00 | 0.00 | 0.00 | 74 | 1019.4 |
| 20260509210513 | 49 | 179 | 2.6 | 5.2 | 0.00 | 0.00 | 0.00 | 74 | 1019.6 |
| 20260509203512 | 50 | 195 | 2.6 | 7.0 | 0.00 | 0.00 | 0.00 | 73 | 1019.7 |
| 20260509195513 | 52 | 171 | 3.5 | 7.8 | 0.00 | 0.00 | 0.00 | 65 | 1019.7 |
| 20260509194513 | 53 | 166 | 4.3 | 8.7 | 0.00 | 0.00 | 0.00 | 63 | 1019.6 |
| 20260509183513 | 56 | 148 | 2.6 | 6.1 | 0.00 | 0.00 | 0.00 | 52 | 1019.2 |
| 20260509182514 | 56 | 166 | 4.3 | 8.7 | 0.00 | 0.00 | 0.00 | 50 | 1019.3 |
| 20260509175513 | 59 | 152 | 4.3 | 7.8 | 0.00 | 0.00 | 0.00 | 48 | 1019.3 |
| 20260509174513 | 60 | 159 | 4.3 | 8.7 | 0.00 | 0.00 | 0.00 | 45 | 1019.3 |
| 20260509173513 | 61 | 175 | 5.2 | 11.3 | 0.00 | 0.00 | 0.00 | 46 | 1019.3 |
| 20260509165513 | 63 | 162 | 3.5 | 10.4 | 0.00 | 0.00 | 0.00 | 44 | 1019.5 |
| 20260509163513 | 64 | 195 | 2.6 | 7.8 | 0.00 | 0.00 | 0.00 | 44 | 1019.4 |
| 20260509162514 | 63 | 190 | 5.2 | 10.4 | 0.00 | 0.00 | 0.00 | 43 | 1019.5 |
| 20260509161513 | 62 | 184 | 3.5 | 7.8 | 0.00 | 0.00 | 0.00 | 46 | 1019.6 |
| 20260509154513 | 62 | 353 | 1.7 | 6.1 | 0.00 | 0.00 | 0.00 | 48 | 1020.0 |
| 20260509153514 | 62 | 79 | 1.7 | 7.0 | 0.00 | 0.00 | 0.00 | 46 | 1020.1 |
| 20260509152513 | 64 | 11 | 0.9 | 5.2 | 0.00 | 0.00 | 0.00 | 42 | 1020.1 |
| 20260509151513 | 64 | 312 | 1.7 | 5.2 | 0.00 | 0.00 | 0.00 | 43 | 1020.3 |
| 20260509145512 | 64 | 18 | 4.3 | 7.8 | 0.00 | 0.00 | 0.00 | 43 | 1020.4 |
| 20260509143513 | 64 | 340 | 1.7 | 7.0 | 0.00 | 0.00 | 0.00 | 42 | 1020.5 |
| 20260509140512 | 64 | 17 | 1.7 | 7.0 | 0.00 | 0.00 | 0.00 | 43 | 1020.8 |
| 20260509135513 | 64 | 354 | 2.6 | 7.8 | 0.00 | 0.00 | 0.00 | 42 | 1021.0 |
| 20260509134513 | 64 | 287 | 5.2 | 12.2 | 0.00 | 0.00 | 0.00 | 44 | 1021.1 |
| 20260509133513 | 65 | 311 | 5.2 | 12.2 | 0.00 | 0.00 | 0.00 | 43 | 1021.1 |
| 20260509130514 | 62 | 148 | 2.6 | 7.0 | 0.00 | 0.00 | 0.00 | 41 | 1021.5 |
| 20260509125514 | 62 | 70 | 4.3 | 7.8 | 0.00 | 0.00 | 0.00 | 42 | 1021.7 |
| 20260509123512 | 64 | 120 | 4.3 | 7.0 | 0.00 | 0.00 | 0.00 | 31 | 1021.9 |
| 20260509121513 | 65 | 152 | 2.6 | 7.0 | 0.00 | 0.00 | 0.00 | 38 | 1022.2 |
| 20260509113512 | 63 | 184 | 1.7 | 6.1 | 0.00 | 0.00 | 0.00 | 37 | 1022.7 |
| 20260509112513 | 63 | 245 | 3.5 | 7.0 | 0.00 | 0.00 | 0.00 | 37 | 1022.7 |
| 20260509110513 | 63 | 199 | 1.7 | 5.2 | 0.00 | 0.00 | 0.00 | 37 | 1022.8 |
| 20260509105514 | 63 | 192 | 3.5 | 5.2 | 0.00 | 0.00 | 0.00 | 36 | 1022.9 |
| 20260509104513 | 63 | 213 | 3.5 | 6.1 | 0.00 | 0.00 | 0.00 | 35 | 1023.0 |
| 20260509103513 | 63 | 179 | 4.3 | 7.0 | 0.00 | 0.00 | 0.00 | 34 | 1023.0 |
| 20260509101513 | 63 | 180 | 3.5 | 6.1 | 0.00 | 0.00 | 0.00 | 37 | 1023.0 |
| 20260509100513 | 61 | 200 | 2.6 | 8.7 | 0.00 | 0.00 | 0.00 | 35 | 1023.0 |
| 20260509095513 | 62 | 118 | 4.3 | 7.0 | 0.00 | 0.00 | 0.00 | 35 | 1023.0 |
| 20260509092513 | 61 | 122 | 4.3 | 10.4 | 0.00 | 0.00 | 0.00 | 30 | 1023.1 |
| 20260509090514 | 60 | 96 | 7.0 | 13.0 | 0.00 | 0.00 | 0.00 | 25 | 1023.2 |
| 20260509083513 | 60 | 49 | 7.0 | 13.0 | 0.00 | 0.00 | 0.00 | 28 | 1023.3 |
| 20260509082512 | 59 | 56 | 7.0 | 10.4 | 0.00 | 0.00 | 0.00 | 28 | 1023.4 |